#timestamp,LO_Frequency,Hit 
1504004415.5,286046999.2,N
1504004435.4,286046997.5,N
1504004455.2,286046996.7,N
1504004475.0,286046997.1,N
1504004475.9,286046997.1,N
1504004495.8,286046993.5,N
1504004515.6,286046992.3,N
1504004535.4,286046991.7,N
1504004555.3,286046991.4,N
1504004575.1,286046989.8,N
1504004576.0,286046989.8,N
1504004595.8,286046991.4,N
1504004615.7,286046990.4,N
1504004635.5,286046992.7,N
1504004655.3,286046988.9,N
1504004675.2,286046989.7,N
1504004695.9,286046989.7,N
1504004715.7,286046989.4,N
1504004735.6,286046987.1,N
1504004755.4,286046988.6,N
1504004775.2,286046989.7,N
1504004795.1,286046988.2,N
1504004796.0,286046988.2,N
1504004815.8,286046983.7,P
1504004835.6,286046992.7,N
1504004855.5,286046992.6,N
1504004875.3,286046994.7,N
1504004895.1,286046993.7,N
1504004915.9,286046994.7,N
1504004935.7,286046990.5,N
1504004955.5,286046992.1,N
1504004975.3,286046992.0,N
1504004995.2,286046987.7,P
1504005015.0,286046992.7,P
1504005015.9,286046992.7,P
1504005035.8,286046992.5,P
1504005055.6,286047000.3,N
1504005075.4,286047001.0,N
1504005095.3,286046998.9,N
1504005115.1,286047001.0,N
1504005135.8,286047004.1,N
1504005155.7,286047003.4,N
1504005175.5,286047005.7,N
1504005195.3,286047004.8,N
1504005215.2,286047004.1,N
1504005235.9,286047000.2,N
1504005255.7,286047004.2,N
1504005275.6,286047005.9,N
1504005295.4,286047007.3,N
1504005315.2,286047005.1,N
1504005335.0,286047008.4,N
1504005335.9,286047008.4,N
1504005355.8,286047013.6,N
1504005375.6,286047013.7,N
1504005395.5,286047016.6,P
1504005415.3,286047016.5,N
1504005435.1,286047019.8,P
1504005455.9,286047021.2,P
1504005475.7,286047010.6,N
1504005495.5,286047015.6,P
1504005515.4,286047013.0,P
1504005535.2,286046996.6,N
1504005555.0,286046998.6,N
1504005555.9,286046998.6,N
1504005575.8,286046998.3,N
1504005595.6,286047002.5,N
1504005615.4,286047005.2,N
1504005635.3,286047008.7,N
1504005655.1,286047010.8,N
1504005656.0,286047010.8,N
1504005675.8,286047011.3,N
1504005695.6,286047015.5,N
1504005715.5,286047015.2,N
1504005735.3,286047013.1,N
1504005755.1,286047013.8,N
1504005775.9,286047011.2,N
1504005795.7,286047010.5,N
1504005815.5,286047006.9,N
1504005835.4,286047000.7,N
1504005855.2,286046996.2,N
1504005875.0,286046992.0,N
1504005875.9,286046992.0,N
1504005895.8,286046988.7,N
1504005915.6,286046988.4,N
1504005935.4,286046988.4,N
1504005955.3,286046986.4,N
1504005975.1,286046983.6,N
1504005976.0,286046983.6,N
1504005995.8,286046981.3,N
1504006015.7,286046977.8,N
1504006035.5,286046977.6,N
1504006055.3,286046975.9,N
1504006075.1,286046974.1,N
1504006095.9,286046972.5,N
1504006115.7,286046971.3,N
1504006135.5,286046970.7,N
1504006155.4,286046968.9,N
1504006175.2,286046966.1,N
1504006195.0,286046968.9,N
1504006195.9,286046968.9,N
1504006215.8,286046969.6,N
1504006235.6,286046970.7,N
1504006255.4,286046967.4,N
1504006275.3,286046960.2,N
1504006295.1,286046962.2,N
1504006296.0,286046962.2,N
1504006315.8,286046964.6,N
1504006335.7,286046965.2,N
1504006355.5,286046967.3,N
1504006375.3,286046963.5,P
1504006395.2,286046985.4,N
1504006415.9,286046983.1,N
1504006435.7,286046981.6,N
1504006455.3,286046979.9,N
1504006475.1,286046979.5,N
1504006495.8,286046998.5,P
1504006515.7,286047001.1,N
1504006535.5,286046998.1,N
1504006555.3,286047000.6,N
1504006575.2,286047002.7,N
1504006595.9,286047004.0,N
1504006615.7,286047003.0,N
1504006635.6,286047005.7,N
1504006655.4,286047004.9,N
1504006675.2,286047006.3,N
1504006695.1,286047003.0,N
1504006696.0,286047003.0,N
1504006715.8,286047002.5,N
1504006735.6,286047001.4,N
1504006755.5,286047002.6,N
1504006775.3,286047000.5,N
1504006795.1,286046996.5,N
1504006815.8,286046997.1,N
1504006835.7,286046998.0,N
1504006855.5,286046997.2,N
1504006875.3,286046996.5,N
1504006895.2,286046999.2,N
1504006915.9,286046999.6,N
1504006935.7,286046996.5,N
1504006955.6,286046996.9,N
1504006975.4,286046994.9,N
1504006995.2,286046995.9,N
1504007015.1,286046995.5,N
1504007016.0,286046995.5,N
1504007035.8,286046995.7,N
1504007055.8,286046995.2,N
1504007075.7,286046997.9,N
1504007095.5,286046997.7,N
1504007115.3,286046997.1,N
1504007135.2,286046996.1,N
1504007155.9,286046996.5,N
1504007175.7,286046995.0,N
1504007195.6,286046998.8,N
1504007215.4,286047000.5,N
1504007235.2,286047002.2,N
1504007255.0,286047001.4,N
1504007256.0,286047001.4,N
1504007275.8,286047001.7,N
1504007295.6,286047001.8,N
1504007315.4,286047006.3,N
1504007335.3,286047007.7,N
1504007355.1,286047009.4,N
1504007375.9,286047014.4,P
1504007395.7,286047021.7,N
1504007415.5,286047024.7,N
1504007435.3,286047026.6,N
1504007455.2,286047027.3,N
1504007475.0,286047027.2,N
1504007475.9,286047027.2,N
1504007495.7,286047027.9,N
1504007515.6,286047025.7,N
1504007535.4,286047026.1,P
1504007555.2,286047001.6,N
1504007575.1,286047002.3,N
1504007576.0,286047002.3,N
1504007595.8,286046998.8,N
1504007615.6,286046997.8,N
1504007635.5,286046997.9,N
1504007655.3,286046995.4,N
1504007675.1,286046995.2,N
1504007695.9,286046997.4,N
1504007715.7,286046995.2,N
1504007735.5,286046995.7,N
1504007755.4,286046995.8,N
1504007775.2,286046993.8,N
1504007795.0,286046994.3,N
1504007795.9,286046994.3,N
1504007815.8,286046992.4,N
1504007835.6,286046988.9,N
1504007855.4,286046986.9,N
1504007875.3,286046987.1,N
1504007895.1,286046985.5,N
1504007896.0,286046985.5,N
1504007915.8,286046988.1,N
1504007935.6,286046988.6,N
1504007955.5,286046994.6,N
1504007975.3,286046995.6,N
1504007995.1,286046993.1,N
